Terug naar catalogus

STARLINK-31708

ActiefCommunicatieVLEO
NORAD 59439·PAYLOAD·🇺🇸 United States

Gelanceerd Apr 7, 2024 vanaf Vandenberg Space Force Base

Loading…

Volgende Passages (komende 24 uur)

TLE

VersSource: CelesTrak SupGP

Epoch: Sep 15, 2026, 01:53 UTC

1 59439C 24065U   26258.07895833  .00056947  00000+0  16829-2 0  2589
2 59439  53.1574 119.1805 0001171  80.1611 337.5936 15.34355240    18

Volg STARLINK-31708 in realtime met AllMySat

Download on the App Store